Weather History for Vero Beach, FL

Change the Weather History Date:

Tuesday, January 8, 2013

  Actual Average Record
Temperature  
Mean Temperature 72 °F 62 °F  
Max Temperature 78 °F 72 °F 86 °F (1998)
Min Temperature 66 °F 52 °F 30 °F (2006)
Degree Days  
Heating Degree Days 0 5  
Month to date heating degree days 40  
Since 1 July heating degree days 175  
Cooling Degree Days 7 2  
Month to date cooling degree days 16  
Year to date cooling degree days 16  
Growing Degree Days 22 (Base 50)    
Moisture  
Dew Point 67 °F    
Average Humidity 87    
Maximum Humidity 100    
Minimum Humidity 68    
Precipitation  
Precipitation 0.04 in 0.08 in 0.74 in (1945)
Month to date precipitation 0.65  
Year to date precipitation 0.65  
Sea Level Pressure  
Sea Level Pressure 30.17 in    
Wind  
Wind Speed 6 mph (ESE)    
Max Wind Speed 16 mph    
Max Gust Speed 26 mph    
Visibility 9 miles    
Events Rain    
T = Trace of Precipitation, MM = Missing Value Source: NWS Daily Summary

Daily Weather History Graph

Daily Weather History Graph

Search for Another Location

Airport:

Trip Planner

Search our weather history database for the weather conditions in past years. The results will help you decide how hot, cold, wet, or windy it might be!

Date:

Astronomy

Jan. 08, 2013 Rise Set
Actual Time 7:13 AM EST 5:43 PM EST
Civil Twilight 6:48 AM EST 6:09 PM EST
Nautical Twilight 6:19 AM EST 6:37 PM EST
Astronomical Twilight 5:50 AM EST 7:06 PM EST
Moon 3:46 AM EST (1/8) 2:43 PM EST (1/8)
Length of Visible Light 11h 20m
Length of Day
10h 29m
Waning Crescent, 14% of the Moon is Illuminated
Jan 8
Waning Crescent
Jan 11
New
Jan 18
First Quarter
Jan 26
Full
Feb 3
Last Quarter

Hourly Weather History & Observations

Time (EST) Temp. Dew Point Humidity Pressure Visibility Wind Dir Wind Speed Gust Speed Precip Events Conditions
12:53 AM 69.1 °F 66.0 °F 90% 30.14 in 10.0 mi NE 9.2 mph - N/A   Overcast
1:03 AM 69.8 °F 66.2 °F 88% 30.14 in 10.0 mi NE 8.1 mph - N/A   Overcast
1:53 AM 69.1 °F 66.9 °F 93% 30.14 in 10.0 mi NNE 5.8 mph - N/A   Overcast
2:16 AM 69.8 °F 66.2 °F 88% 30.14 in 10.0 mi ESE 3.5 mph - N/A   Overcast
2:41 AM 68.0 °F 68.0 °F 100% 30.13 in 10.0 mi Calm Calm - N/A   Mostly Cloudy
2:53 AM 69.1 °F 66.9 °F 93% 30.13 in 10.0 mi Calm Calm - N/A   Mostly Cloudy
3:53 AM 68.0 °F 66.0 °F 93% 30.12 in 10.0 mi Calm Calm - N/A   Overcast
4:53 AM 66.9 °F 66.0 °F 97% 30.13 in 8.0 mi NNW 3.5 mph - N/A   Overcast
5:53 AM 66.9 °F 66.0 °F 97% 30.13 in 9.0 mi NNE 4.6 mph - N/A   Partly Cloudy
6:53 AM 66.9 °F 64.9 °F 93% 30.16 in 9.0 mi Calm Calm - N/A   Partly Cloudy
7:53 AM 69.1 °F 66.9 °F 93% 30.19 in 10.0 mi Calm Calm - N/A   Mostly Cloudy
8:53 AM 72.0 °F 69.1 °F 91% 30.21 in 10.0 mi South 5.8 mph - N/A   Overcast
9:53 AM 73.9 °F 68.0 °F 82% 30.23 in 10.0 mi ESE 4.6 mph - N/A   Overcast
10:53 AM 75.0 °F 66.0 °F 73% 30.22 in 10.0 mi SE 11.5 mph - N/A   Overcast
11:53 AM 75.9 °F 66.0 °F 71% 30.21 in 10.0 mi SE 9.2 mph - N/A   Overcast
12:53 PM 78.1 °F 66.9 °F 68% 30.19 in 10.0 mi ESE 6.9 mph - N/A   Overcast
1:53 PM 78.1 °F 68.0 °F 71% 30.17 in 10.0 mi ESE 6.9 mph - N/A   Overcast
2:53 PM 71.1 °F 64.9 °F 81% 30.18 in 4.0 mi South 16.1 mph 26.5 mph 0.01 in Rain Rain
3:05 PM 69.8 °F 64.4 °F 83% 30.18 in 4.0 mi South 11.5 mph 21.9 mph 0.03 in Rain Light Rain
3:17 PM 69.8 °F 66.2 °F 88% 30.18 in 10.0 mi SE 5.8 mph - 0.03 in   Overcast
3:53 PM 73.0 °F 68.0 °F 84% 30.17 in 10.0 mi Calm Calm - 0.03 in   Overcast
4:00 PM 73.4 °F 68.0 °F 83% 30.17 in 10.0 mi Calm Calm - N/A   Overcast
4:53 PM 73.9 °F 68.0 °F 82% 30.17 in 10.0 mi ENE 4.6 mph - N/A   Mostly Cloudy
5:53 PM 72.0 °F 66.9 °F 84% 30.18 in 10.0 mi East 4.6 mph - N/A   Overcast
6:53 PM 72.0 °F 66.9 °F 84% 30.19 in 10.0 mi East 5.8 mph - N/A   Partly Cloudy
7:53 PM 72.0 °F 68.0 °F 87% 30.19 in 10.0 mi East 5.8 mph - N/A   Clear
8:53 PM 72.0 °F 70.0 °F 93% 30.19 in 9.0 mi ESE 6.9 mph - N/A   Scattered Clouds
9:01 PM 73.4 °F 69.8 °F 88% 30.20 in 9.0 mi ESE 8.1 mph - N/A   Mostly Cloudy
9:11 PM 73.4 °F 69.8 °F 88% 30.20 in 9.0 mi ESE 8.1 mph - N/A   Scattered Clouds
9:53 PM 73.0 °F 70.0 °F 90% 30.20 in 10.0 mi ESE 10.4 mph - N/A   Clear